Oshkosh, WI

9:02 AM CST on November 14, 2019 (GMT -0600)
Wittman Regional

Weather History for KOSH - October, 2019

Change the Weather History Date:

Tuesday, October 15, 2019

  Actual Average Record
Temperature  
Mean Temperature 46 °F -  
Max Temperature 57 °F 58 °F 85 °F (1968)
Min Temperature 36 °F 41 °F 28 °F (1972)
Degree Days  
Heating Degree Days 20    
Moisture  
Dew Point 40 °F    
Average Humidity 80    
Maximum Humidity 89    
Minimum Humidity 64    
Precipitation  
Precipitation 0.06 in - - ()
Sea Level Pressure  
Sea Level Pressure 29.79 in    
Wind  
Wind Speed 7 mph (SW)    
Max Wind Speed 17 mph    
Max Gust Speed 33 mph    
Visibility 10 miles    
Events Rain , Thunderstorm    
Averages and records for this station are not official NWS values.
T = Trace of Precipitation, MM = Missing Value Source: NWS Daily Summary

Daily Weather History Graph

Daily Weather History Graph

Search for Another Location

Airport or City:

Astronomy

Oct. 15, 2019 Rise Set
Actual Time 7:08 AM CDT 6:10 PM CDT
Civil Twilight 6:39 AM CDT 6:39 PM CDT
Nautical Twilight 6:06 AM CDT 7:13 PM CDT
Astronomical Twilight 5:32 AM CDT 7:46 PM CDT
Moon 7:28 PM CDT (10/15) 8:40 AM CDT (10/15)
Length of Visible Light 12h 00m
Length of Day
11h 02m
Full, 97% of the Moon is Illuminated
Oct 15
Full
Oct 21
Last Quarter
Oct 27
New
Nov 4
First Quarter
Nov 12
Full

Hourly Weather History & Observations

Time (CDT) Temp. Windchill Dew Point Humidity Pressure Visibility Wind Dir Wind Speed Gust Speed Precip Events Conditions
12:53 AM 36.0 °F 32.1 °F 32.0 °F 86% 30.03 in 10.0 mi South 4.6 mph - N/A   Clear
1:53 AM 36.0 °F 32.1 °F 32.0 °F 86% 30.03 in 10.0 mi South 4.6 mph - N/A   Clear
2:53 AM 37.0 °F 34.5 °F 32.0 °F 82% 30.01 in 10.0 mi SSE 3.5 mph - N/A   Clear
3:53 AM 37.0 °F 33.3 °F 32.0 °F 82% 29.98 in 10.0 mi South 4.6 mph - N/A   Clear
4:53 AM 37.9 °F 32.7 °F 34.0 °F 86% 29.95 in 10.0 mi SE 6.9 mph - N/A   Overcast
5:53 AM 44.1 °F 39.5 °F 36.0 °F 73% 29.91 in 10.0 mi SE 8.1 mph - N/A   Overcast
6:53 AM 45.0 °F 41.2 °F 39.9 °F 82% 29.87 in 10.0 mi SE 6.9 mph - 0.02 in   Overcast
7:27 AM 45.0 °F 41.2 °F 41.0 °F 86% 29.85 in 7.0 mi SE 6.9 mph - 0.01 in Rain , Thunderstorm Light Rain
7:42 AM 45.0 °F 42.6 °F 41.0 °F 86% 29.85 in 10.0 mi SE 4.6 mph - 0.02 in Rain Light Rain
7:53 AM 45.0 °F 41.2 °F 41.0 °F 86% 29.86 in 9.0 mi ESE 6.9 mph - 0.02 in Rain , Thunderstorm Light Rain
8:12 AM 46.0 °F 43.1 °F 42.1 °F 86% 29.83 in 7.0 mi SE 5.8 mph - 0.01 in Rain Light Rain
8:53 AM 46.9 °F - 41.0 °F 80% 29.81 in 10.0 mi SSE 13.8 mph - 0.02 in   Overcast
9:53 AM 48.0 °F - 42.1 °F 80% 29.80 in 10.0 mi South 12.7 mph - N/A   Overcast
10:53 AM 48.9 °F - 43.0 °F 80% 29.76 in 10.0 mi SE 8.1 mph - N/A   Overcast
11:53 AM 54.0 °F - 46.0 °F 75% 29.72 in 10.0 mi SSE 8.1 mph - N/A   Mostly Cloudy
12:53 PM 55.9 °F - 44.1 °F 64% 29.70 in 10.0 mi SSW 9.2 mph - N/A   Overcast
1:36 PM 55.0 °F - 45.0 °F 69% 29.68 in 10.0 mi West 5.8 mph - N/A   Overcast
1:53 PM 54.0 °F - 45.0 °F 72% 29.69 in 10.0 mi West 5.8 mph - N/A   Overcast
2:53 PM 54.0 °F - 45.0 °F 72% 29.67 in 10.0 mi West 3.5 mph - N/A   Overcast
3:53 PM 52.0 °F - 45.0 °F 77% 29.68 in 10.0 mi WNW 4.6 mph - N/A   Overcast
4:35 PM 52.0 °F - 45.0 °F 77% 29.66 in 10.0 mi WNW 5.8 mph - N/A   Overcast
4:53 PM 52.0 °F - 45.0 °F 77% 29.68 in 10.0 mi West 3.5 mph - N/A   Overcast
5:53 PM 50.0 °F - 44.1 °F 80% 29.70 in 9.0 mi West 12.7 mph 20.7 mph N/A   Overcast
6:53 PM 48.0 °F - 42.1 °F 80% 29.71 in 10.0 mi WNW 11.5 mph - N/A   Overcast
7:53 PM 46.9 °F - 39.9 °F 77% 29.72 in 10.0 mi West 10.4 mph 21.9 mph N/A   Overcast
8:53 PM 46.0 °F 41.0 °F 39.9 °F 79% 29.72 in 10.0 mi West 10.4 mph 18.4 mph N/A   Overcast
9:45 PM 44.1 °F 37.1 °F 37.9 °F 79% 29.71 in 10.0 mi West 15.0 mph 33.4 mph N/A   Overcast
9:53 PM 43.0 °F 36.0 °F 37.9 °F 82% 29.72 in 10.0 mi West 13.8 mph 25.3 mph N/A   Overcast
10:53 PM 42.1 °F 33.9 °F 36.0 °F 79% 29.73 in 10.0 mi WNW 17.3 mph 28.8 mph N/A   Overcast
11:53 PM 39.9 °F 32.1 °F 37.0 °F 89% 29.73 in 4.0 mi WNW 13.8 mph 25.3 mph 0.00 in Rain Light Rain